This is the latest recevied weather packets stored in our database for station/object DB0LHR-6. If no packets are shown the sender has not sent any weather packets the latest 10 day(s).
| Time | Temp. | Humidity | Pressure | Rain* | Wind** | Luminosity | Snow |
|---|---|---|---|---|---|---|---|
| 1778246416 | 21.11° C | 38% | 1015 hPa | 0 mm | - | - | - |
| 1778245516 | 21.11° C | 40% | 1015 hPa | 0 mm | - | - | - |
| 1778244616 | 20.56° C | 42% | 1015 hPa | 0 mm | - | - | - |
| 1778243716 | 20.56° C | 42% | 1015 hPa | 0 mm | - | - | - |
| 1778242816 | 20° C | 45% | 1015 hPa | 0 mm | - | - | - |
| 1778241916 | 19.44° C | 48% | 1015 hPa | 0 mm | - | - | - |
| 1778241016 | 19.44° C | 48% | 1015 hPa | 0 mm | - | - | - |
| 1778240116 | 18.89° C | 50% | 1015 hPa | 0 mm | - | - | - |
| 1778239216 | 18.33° C | 51% | 1016 hPa | 0 mm | - | - | - |
| 1778238316 | 17.78° C | 49% | 1016 hPa | 0 mm | - | - | - |
| 1778237416 | 17.22° C | 49% | 1016 hPa | 0 mm | - | - | - |
| 1778236516 | 16.67° C | 54% | 1016 hPa | 0 mm | - | - | - |
| 1778235616 | 16.11° C | 60% | 1016 hPa | 0 mm | - | - | - |
| 1778234716 | 15.56° C | 66% | 1016 hPa | 0 mm | - | - | - |
| 1778233816 | 15° C | 68% | 1016 hPa | 0 mm | - | - | - |
| 1778232916 | 14.44° C | 72% | 1016 hPa | 0 mm | - | - | - |
| 1778232016 | 13.89° C | 77% | 1016 hPa | 0 mm | - | - | - |
| 1778231116 | 12.22° C | 82% | 1016 hPa | 0 mm | - | - | - |
| 1778230216 | 11.67° C | 87% | 1016 hPa | 0 mm | - | - | - |
| 1778229316 | 10.56° C | 86% | 1016 hPa | 0 mm | - | - | - |
| 1778228416 | 10.56° C | 86% | 1016 hPa | 0 mm | - | - | - |
| 1778227516 | 10.56° C | 83% | 1016 hPa | 0 mm | - | - | - |
| 1778226616 | 11.11° C | 84% | 1016 hPa | 0 mm | - | - | - |
| 1778225716 | 10.56° C | 89% | 1016 hPa | 0 mm | - | - | - |
| 1778224816 | 10° C | 89% | 1016 hPa | 0 mm | - | - | - |
* Rain latest 24 hours (hover to see other rain measurements)
** Current wind speed in m/s (hover to see current wind gust speed)